Flag for Turkey Weather past 2 weeks in Izmir, Turkey

Now
68 °F

Clear.


Feels Like: 68 °F
Forecast: 69 / 101 °F
Wind: No wind

Location: Izmir / Adnan Menderes

Current Time: Sep 4, 2015 at 7:27:54 AM

Latest Report: Sep 4, 2015 at 6:20 AM


Visibility: 10 mi

Pressure: 29.83 "Hg

Humidity: 83%

Dew point: 63 °F

Location of IzmirLocation

Historic Weather in Izmir — Graph

°F

Izmir temperature yesterday

Maximum temperature yesterday: 91 °F (at 2:50 PM)
Minimum temperature yesterday: 64 °F (at 2:50 AM)
Average temperature yesterday: 78 °F

Past Weeks' High & Low Weather Summary

 TemperatureHumidityPressure
High99 °F (Aug 31, 3:20 PM)94% (Sep 2, 4:50 AM)30.01 "Hg (Sep 2, 4:50 AM)
Low64 °F (Sep 2, 5:50 AM)12% (Aug 31, 12:50 PM)29.74 "Hg (Aug 22, 2:20 PM)
Average83 °F45%29.87 "Hg
* Reported Aug 20 5:20 AM — Sep 4 5:50 AM, Izmir, Weather by CustomWeather, © 2015

Note: Actual official high and low records may vary slightly from our data, if they occured in-between our weather recording intervals... More about our weather records

Advertising

Izmir weather history for previous 24 hours

 ConditionsComfort  
Time TempWeatherWind HumidityBarometerVisibility
5:50 AM
Fri, Sep 4
68 °FClear.No wind83%29.83 "Hg10 mi
5:20 AM66 °FClear.3 mph83%29.83 "Hg10 mi
4:50 AM68 °FPassing clouds.3 mph78%29.83 "HgN/A
4:20 AM68 °FClear.1 mph83%29.83 "Hg10 mi
3:50 AM68 °FClear.2 mph83%29.83 "Hg10 mi
3:20 AM70 °FClear.No wind78%29.83 "Hg10 mi
2:50 AM70 °FClear.No wind78%29.83 "Hg10 mi
2:20 AM70 °FClear.No wind78%29.83 "Hg10 mi
1:50 AM72 °FPassing clouds.3 mph73%29.83 "HgN/A
1:20 AM72 °FClear.No wind73%29.83 "Hg10 mi
12:20 AM75 °FPassing clouds.3 mph69%29.83 "HgN/A
11:50 PM
Thu, Sep 3
75 °FPassing clouds.5 mph65%29.83 "HgN/A
11:20 PM77 °FPassing clouds.3 mph61%29.83 "HgN/A
10:50 PM77 °FClear.8 mph65%29.83 "Hg10 mi
10:20 PM77 °FClear.10 mph65%29.86 "Hg10 mi
9:50 PM77 °FClear.9 mph65%29.86 "Hg10 mi
9:20 PM79 °FClear.14 mph65%29.83 "Hg10 mi
8:50 PM79 °FClear.10 mph65%29.83 "Hg10 mi
8:20 PM79 °FSunny.12 mph65%29.83 "Hg10 mi
7:50 PM82 °FPassing clouds.8 mph51%29.80 "HgN/A
7:20 PM84 °FSunny.8 mph45%29.80 "Hg10 mi
6:50 PM86 °FSunny.13 mph43%29.80 "Hg10 mi
6:20 PM88 °FPassing clouds.14 mph38%29.80 "HgN/A
5:50 PM90 °FPassing clouds.12 mph31%29.80 "HgN/A
5:20 PM90 °FPassing clouds.14 mph29%29.80 "HgN/A
4:50 PM91 °FPassing clouds.16 mph24%29.80 "HgN/A
4:20 PM90 °FPassing clouds.14 mph29%29.80 "HgN/A
3:50 PM91 °FPassing clouds.12 mph30%29.80 "HgN/A
3:20 PM91 °FPassing clouds.12 mph24%29.80 "HgN/A
2:50 PM91 °FPassing clouds.13 mph24%29.80 "HgN/A
2:20 PM90 °FPassing clouds.12 mph27%29.83 "HgN/A
1:50 PM90 °FPassing clouds.13 mph31%29.83 "HgN/A
1:20 PM88 °FPassing clouds.10 mph29%29.83 "HgN/A
12:50 PM88 °FPassing clouds.7 mph31%29.83 "HgN/A
12:20 PM86 °FPassing clouds.6 mph33%29.83 "HgN/A
11:50 AM88 °FSunny.5 mph38%29.86 "Hg10 mi
11:20 AM84 °FSunny.3 mph45%29.86 "Hg10 mi
10:50 AM82 °FSunny.3 mph48%29.86 "Hg10 mi
10:20 AM79 °FSunny.1 mph58%29.86 "Hg10 mi
9:50 AM79 °FSunny.2 mph54%29.86 "Hg10 mi
9:20 AM75 °FPassing clouds.3 mph61%29.86 "HgN/A
8:50 AM73 °FSunny.3 mph65%29.86 "Hg10 mi
8:20 AM70 °FSunny.2 mph73%29.86 "Hg10 mi
7:50 AM68 °FSunny.2 mph73%29.86 "Hg10 mi
7:20 AM66 °FPassing clouds.3 mph78%29.86 "HgN/A
Weather by CustomWeather, © 2015

See weather overviewHow to use our weather pages